Powrót do katalogu

CZ-4C DEB

AktywnySSO
NORAD 38659·DEBRIS·🇨🇳 China

Wystrzelony Dec 15, 2009 z Taiyuan Satellite Launch Center

Loading…

Następne Przeloty (najbliższe 24 godziny)

TLE

ŚwieżeSource: Space-Track

Epoka: Sep 14, 2026, 03:03 UTC

1 38659U 09072G   26257.12774488  .00000272  00000-0  93123-3 0  9994
2 38659 100.7205 214.0697 0133841 270.4925 155.0014 13.05717618794438

Śledź CZ-4C DEB w czasie rzeczywistym z AllMySat

Download on the App Store